User: anonymous   Login
Location: Arthez
(43.0833°N, 0.2500°W)
Time: 16:57:37
(UTC+00:00)
Language:

FENGYUN 1C DEB - Orbit

View from above orbital plane
View from above orbital plane
View from above satellite
View from above satellite

Ground track
Ground track

The orbit data is extracted from the following two-line orbital elements,

1 30350U 99025ABM 22222.38558201  .00000565  00000-0  47935-3 0  9995
2 30350  98.1161 192.8894 0229135  60.3946  90.5134 13.79271674781386
Epoch (UTC): 10 August 2022 09:15:14
Eccentricity: 0.0229135
inclination: 98.1161°
perigee height: 798 km
apogee height: 1135 km
right ascension of ascending node: 192.8894°
argument of perigee: 60.3946°
revolutions per day: 13.79271674
mean anomaly at epoch: 90.5134°
orbit number at epoch: 78138

The dashed part of the orbit path shows where the satellite is in the earth's shadow,  

DLR